EWG31M LDSP-EDDS

Flight info

Callsign EWG31M
Flight time 1h 16m
Altitude 36000
Route ZDA DCT MONFA DCT BAKOR DCT SOTOV P66 KPT L856 NEGRA T732 GARMO T125 REUTL
Aircraft A320/M-SDE2E3FGIJ1RWXYZ/HB1

Departure

Time 2026-05-05 12:09
Airport Split Saint Jerome Airport (LDSP)

Arrival

Time 2026-05-05 13:26
Airport Stuttgart Airport (EDDS)
Time Latitude Longitude Altitude Speed Heading
2026-05-05 11:38 43.53695 16.29808 65 ft 0 kts 115°
2026-05-05 12:05 43.53698 16.29813 68 ft 1 kts 76°
2026-05-05 12:05 43.53717 16.29801 65 ft 6 kts 313°
2026-05-05 12:06 43.53759 16.29798 68 ft 11 kts 24°
2026-05-05 12:06 43.53814 16.29891 62 ft 12 kts 53°
2026-05-05 12:06 43.53862 16.29979 58 ft 11 kts 53°
2026-05-05 12:06 43.53910 16.30057 63 ft 12 kts 36°
2026-05-05 12:07 43.54010 16.30099 60 ft 18 kts 14°
2026-05-05 12:07 43.54112 16.30190 59 ft 21 kts 51°
2026-05-05 12:07 43.54223 16.30389 56 ft 28 kts 53°
2026-05-05 12:07 43.54340 16.30601 54 ft 29 kts 52°
2026-05-05 12:08 43.54468 16.30833 50 ft 32 kts 52°
2026-05-05 12:08 43.54547 16.31025 52 ft 14 kts 81°
2026-05-05 12:08 43.54588 16.31052 53 ft 6 kts 296°
2026-05-05 12:08 43.54577 16.31032 53 ft 0 kts 234°
2026-05-05 12:09 43.54569 16.31016 53 ft 17 kts 234°
2026-05-05 12:09 43.54330 16.30584 54 ft 91 kts 232°
2026-05-05 12:09 43.53826 16.29677 84 ft 144 kts 232°
2026-05-05 12:09 43.53200 16.28553 703 ft 148 kts 228°
2026-05-05 12:10 43.52524 16.27431 1379 ft 154 kts 226°
2026-05-05 12:10 43.51829 16.26305 1989 ft 164 kts 223°
2026-05-05 12:10 43.51027 16.24991 2281 ft 192 kts 224°
2026-05-05 12:10 43.50103 16.23500 2549 ft 220 kts 223°
2026-05-05 12:11 43.49045 16.21802 2928 ft 246 kts 226°
2026-05-05 12:11 43.47955 16.19982 3791 ft 250 kts 225°
2026-05-05 12:11 43.46888 16.18070 4714 ft 257 kts 234°
2026-05-05 12:11 43.46348 16.15668 5546 ft 273 kts 263°
2026-05-05 12:12 43.46711 16.13049 6428 ft 289 kts 291°
2026-05-05 12:12 43.47999 16.10881 7303 ft 300 kts 317°
2026-05-05 12:12 43.49657 16.09139 8277 ft 298 kts 320°
2026-05-05 12:12 43.51318 16.07431 9263 ft 298 kts 319°
2026-05-05 12:13 43.52993 16.05711 10177 ft 299 kts 319°
2026-05-05 12:13 43.54667 16.03988 10998 ft 301 kts 318°
2026-05-05 12:13 43.56345 16.02246 11783 ft 303 kts 318°
2026-05-05 12:13 43.58002 16.00372 12147 ft 322 kts 315°
2026-05-05 12:14 43.59736 15.98258 12443 ft 340 kts 314°
2026-05-05 12:14 43.61499 15.96049 13120 ft 345 kts 314°
2026-05-05 12:14 43.63279 15.93812 13863 ft 348 kts 315°
2026-05-05 12:14 43.65083 15.91558 14506 ft 351 kts 315°
2026-05-05 12:15 43.66908 15.89297 15149 ft 353 kts 315°
2026-05-05 12:15 43.68748 15.87026 15801 ft 356 kts 315°
2026-05-05 12:15 43.70604 15.84740 16459 ft 358 kts 315°
2026-05-05 12:15 43.72449 15.82471 17091 ft 361 kts 315°
2026-05-05 12:16 43.74334 15.80152 17694 ft 364 kts 315°
2026-05-05 12:16 43.76236 15.77808 18313 ft 367 kts 315°
2026-05-05 12:16 43.78148 15.75447 18873 ft 369 kts 315°
2026-05-05 12:16 43.80074 15.73070 19363 ft 373 kts 315°
2026-05-05 12:17 43.82021 15.70665 19856 ft 376 kts 315°
2026-05-05 12:17 43.83978 15.68243 20355 ft 380 kts 315°
2026-05-05 12:17 43.85960 15.65790 20832 ft 383 kts 315°
2026-05-05 12:17 43.87955 15.63320 21330 ft 387 kts 315°
2026-05-05 12:18 43.89977 15.60811 21751 ft 392 kts 314°
2026-05-05 12:18 43.92018 15.58273 22248 ft 396 kts 314°
2026-05-05 12:18 43.94076 15.55714 22773 ft 399 kts 315°
2026-05-05 12:18 43.96157 15.53128 23301 ft 402 kts 315°
2026-05-05 12:19 43.98255 15.50520 23773 ft 406 kts 314°
2026-05-05 12:19 44.00336 15.47928 24179 ft 408 kts 314°
2026-05-05 12:19 44.02462 15.45276 24583 ft 411 kts 315°
2026-05-05 12:19 44.04595 15.42613 24981 ft 413 kts 314°
2026-05-05 12:20 44.06736 15.39931 25367 ft 415 kts 314°
2026-05-05 12:20 44.08889 15.37231 25746 ft 417 kts 314°
2026-05-05 12:20 44.10983 15.34494 26121 ft 418 kts 313°
2026-05-05 12:20 44.13044 15.31617 26498 ft 419 kts 311°
2026-05-05 12:21 44.15067 15.28663 26882 ft 421 kts 310°
2026-05-05 12:21 44.17076 15.25668 27266 ft 424 kts 310°
2026-05-05 12:21 44.19095 15.22653 27573 ft 427 kts 310°
2026-05-05 12:21 44.21143 15.19619 27947 ft 430 kts 311°
2026-05-05 12:22 44.23212 15.16584 28304 ft 433 kts 311°
2026-05-05 12:22 44.25304 15.13541 28674 ft 436 kts 311°
2026-05-05 12:22 44.27415 15.10487 29032 ft 438 kts 311°
2026-05-05 12:22 44.29536 15.07417 29371 ft 440 kts 311°
2026-05-05 12:23 44.31638 15.04366 29760 ft 441 kts 311°
2026-05-05 12:23 44.33758 15.01270 30128 ft 442 kts 311°
2026-05-05 12:23 44.35884 14.98155 30413 ft 443 kts 311°
2026-05-05 12:23 44.38014 14.95030 30695 ft 444 kts 311°
2026-05-05 12:24 44.40148 14.91902 31001 ft 444 kts 311°
2026-05-05 12:24 44.42281 14.88771 31199 ft 447 kts 311°
2026-05-05 12:24 44.44430 14.85609 31457 ft 448 kts 311°
2026-05-05 12:24 44.46549 14.82490 31826 ft 446 kts 311°
2026-05-05 12:25 44.48690 14.79342 32235 ft 444 kts 311°
2026-05-05 12:25 44.50814 14.76217 32655 ft 441 kts 311°
2026-05-05 12:25 44.52920 14.73116 33069 ft 438 kts 311°
2026-05-05 12:25 44.55015 14.70019 33490 ft 435 kts 310°
2026-05-05 12:26 44.57069 14.66981 33916 ft 432 kts 310°
2026-05-05 12:26 44.59132 14.63930 34297 ft 430 kts 310°
2026-05-05 12:26 44.61192 14.60884 34614 ft 428 kts 310°
2026-05-05 12:26 44.63239 14.57848 34908 ft 427 kts 310°
2026-05-05 12:27 44.65253 14.54852 35170 ft 427 kts 310°
2026-05-05 12:27 44.67301 14.51801 35336 ft 429 kts 310°
2026-05-05 12:27 44.69352 14.48744 35598 ft 428 kts 310°
2026-05-05 12:27 44.71388 14.45708 35907 ft 426 kts 310°
2026-05-05 12:28 44.72734 14.43698 36010 ft 427 kts 310°
2026-05-05 12:28 44.74779 14.40640 36053 ft 431 kts 310°
2026-05-05 12:28 44.79624 14.33388 36054 ft 443 kts 310°
2026-05-05 12:29 44.83168 14.28080 36054 ft 451 kts 310°
2026-05-05 12:29 44.87505 14.21575 36056 ft 454 kts 310°
2026-05-05 12:30 44.89618 14.18409 36055 ft 430 kts 310°
2026-05-05 12:30 44.91657 14.15344 36055 ft 431 kts 310°
2026-05-05 12:30 44.95716 14.09213 36050 ft 423 kts 310°
2026-05-05 12:31 44.99698 14.03184 36055 ft 421 kts 310°
2026-05-05 12:31 45.03685 13.97124 36049 ft 420 kts 310°
2026-05-05 12:32 45.07651 13.91087 36049 ft 420 kts 310°
2026-05-05 12:32 45.11634 13.85021 36059 ft 420 kts 310°
2026-05-05 12:33 45.15593 13.78991 36051 ft 420 kts 309°
2026-05-05 12:33 45.19572 13.72911 36049 ft 420 kts 309°
2026-05-05 12:34 45.23534 13.66843 36045 ft 420 kts 309°
2026-05-05 12:34 45.27494 13.60766 36065 ft 421 kts 309°
2026-05-05 12:35 45.31470 13.54648 36062 ft 420 kts 309°
2026-05-05 12:35 45.35423 13.48548 36060 ft 419 kts 309°
2026-05-05 12:36 45.39350 13.42469 36054 ft 419 kts 309°
2026-05-05 12:36 45.43304 13.36349 36026 ft 420 kts 309°
2026-05-05 12:37 45.47227 13.30255 36034 ft 420 kts 309°
2026-05-05 12:37 45.51273 13.24214 36033 ft 421 kts 312°
2026-05-05 12:38 45.55561 13.18510 36030 ft 422 kts 314°
2026-05-05 12:38 45.59881 13.12890 36038 ft 422 kts 314°
2026-05-05 12:39 45.64174 13.07152 36038 ft 422 kts 313°
2026-05-05 12:39 45.68432 13.01351 36041 ft 423 kts 313°
2026-05-05 12:40 45.72661 12.95580 36041 ft 422 kts 313°
2026-05-05 12:40 45.76924 12.89781 36048 ft 422 kts 313°
2026-05-05 12:41 45.81191 12.83981 36051 ft 422 kts 313°
2026-05-05 12:41 45.85420 12.78216 36044 ft 421 kts 313°
2026-05-05 12:42 45.89672 12.72385 36048 ft 422 kts 313°
2026-05-05 12:42 45.93922 12.66551 36059 ft 423 kts 312°
2026-05-05 12:43 45.98163 12.60716 36063 ft 424 kts 312°
2026-05-05 12:43 46.02427 12.54845 36063 ft 423 kts 312°
2026-05-05 12:44 46.06672 12.48983 36061 ft 423 kts 312°
2026-05-05 12:44 46.10923 12.43104 36055 ft 423 kts 312°
2026-05-05 12:45 46.15142 12.37243 36056 ft 423 kts 312°
2026-05-05 12:45 46.19377 12.31343 36048 ft 423 kts 312°
2026-05-05 12:46 46.23578 12.25469 36036 ft 422 kts 311°
2026-05-05 12:46 46.27796 12.19570 36027 ft 422 kts 312°
2026-05-05 12:47 46.32006 12.13679 36018 ft 421 kts 311°
2026-05-05 12:47 46.36225 12.07759 36015 ft 422 kts 311°
2026-05-05 12:48 46.40428 12.01841 35992 ft 424 kts 311°
2026-05-05 12:48 46.44658 11.95873 35973 ft 425 kts 311°
2026-05-05 12:49 46.48871 11.89927 35971 ft 425 kts 311°
2026-05-05 12:49 46.53107 11.83927 35963 ft 425 kts 311°
2026-05-05 12:50 46.57341 11.77910 35972 ft 426 kts 311°
2026-05-05 12:50 46.61556 11.71906 35968 ft 427 kts 311°
2026-05-05 12:51 46.65686 11.65690 35962 ft 426 kts 309°
2026-05-05 12:51 46.69729 11.59363 35962 ft 427 kts 309°
2026-05-05 12:52 46.73767 11.53055 35957 ft 427 kts 309°
2026-05-05 12:52 46.77860 11.46727 35962 ft 428 kts 309°
2026-05-05 12:53 46.81931 11.40450 35962 ft 429 kts 309°
2026-05-05 12:53 46.86033 11.34071 35932 ft 431 kts 309°
2026-05-05 12:54 46.92182 11.24485 35918 ft 434 kts 309°
2026-05-05 12:55 46.96839 11.18785 35916 ft 442 kts 324°
2026-05-05 12:55 47.02072 11.14014 35897 ft 443 kts 323°
2026-05-05 12:56 47.07295 11.09204 35912 ft 443 kts 323°
2026-05-05 12:56 47.12188 11.03802 35861 ft 440 kts 316°
2026-05-05 12:57 47.16913 10.98137 35859 ft 441 kts 316°
2026-05-05 12:57 47.21677 10.92436 35838 ft 442 kts 316°
2026-05-05 12:58 47.26436 10.86722 35841 ft 442 kts 316°
2026-05-05 12:58 47.31200 10.80990 35839 ft 442 kts 316°
2026-05-05 12:59 47.35930 10.75281 35828 ft 443 kts 316°
2026-05-05 12:59 47.40755 10.69571 35823 ft 445 kts 319°
2026-05-05 13:00 47.48414 10.61816 35823 ft 447 kts 322°
2026-05-05 13:01 47.58727 10.51482 35832 ft 448 kts 321°
2026-05-05 13:01 47.63802 10.46186 35825 ft 449 kts 321°
2026-05-05 13:02 47.68829 10.40693 35837 ft 446 kts 313°
2026-05-05 13:02 47.70900 10.37311 35840 ft 440 kts 302°
2026-05-05 13:02 47.72499 10.33481 35838 ft 434 kts 291°
2026-05-05 13:03 47.74180 10.25044 35840 ft 422 kts 271°
2026-05-05 13:03 47.74153 10.16381 35831 ft 420 kts 264°
2026-05-05 13:04 47.73945 10.07661 35142 ft 429 kts 264°
2026-05-05 13:04 47.73834 10.03205 33963 ft 443 kts 264°
2026-05-05 13:04 47.73721 9.98618 33040 ft 446 kts 264°
2026-05-05 13:05 47.73610 9.94013 32294 ft 446 kts 264°
2026-05-05 13:05 47.73501 9.89421 31604 ft 444 kts 263°
2026-05-05 13:05 47.73392 9.84844 30953 ft 441 kts 263°
2026-05-05 13:05 47.73279 9.80294 30317 ft 438 kts 263°
2026-05-05 13:06 47.73164 9.75826 29705 ft 436 kts 263°
2026-05-05 13:06 47.73045 9.71349 29078 ft 433 kts 263°
2026-05-05 13:06 47.72927 9.66891 28403 ft 430 kts 263°
2026-05-05 13:06 47.72802 9.62428 27454 ft 434 kts 263°
2026-05-05 13:07 47.72670 9.57929 26555 ft 437 kts 263°
2026-05-05 13:07 47.72539 9.53416 25667 ft 438 kts 264°
2026-05-05 13:07 47.72450 9.48883 24958 ft 439 kts 269°
2026-05-05 13:07 47.72890 9.44445 24702 ft 431 kts 281°
2026-05-05 13:08 47.73932 9.40382 24470 ft 424 kts 294°
2026-05-05 13:08 47.75556 9.36748 24188 ft 418 kts 308°
2026-05-05 13:08 47.77682 9.33791 23678 ft 419 kts 322°
2026-05-05 13:08 47.80227 9.31693 23120 ft 420 kts 337°
2026-05-05 13:09 47.83001 9.30592 22592 ft 418 kts 352°
2026-05-05 13:09 47.85911 9.30491 22038 ft 415 kts
2026-05-05 13:09 47.88788 9.30717 21479 ft 412 kts
2026-05-05 13:09 47.91642 9.30941 20941 ft 407 kts
2026-05-05 13:10 47.94446 9.31159 20122 ft 400 kts
2026-05-05 13:10 47.97181 9.31368 19621 ft 385 kts
2026-05-05 13:10 47.99814 9.31569 19143 ft 373 kts
2026-05-05 13:10 48.02343 9.31763 18683 ft 362 kts
2026-05-05 13:11 48.04828 9.31952 18230 ft 352 kts
2026-05-05 13:11 48.07244 9.32132 17753 ft 343 kts
2026-05-05 13:11 48.09607 9.32310 17323 ft 339 kts
2026-05-05 13:11 48.11961 9.32487 16903 ft 339 kts
2026-05-05 13:12 48.14316 9.32664 16502 ft 338 kts
2026-05-05 13:12 48.16636 9.32916 16105 ft 339 kts
2026-05-05 13:12 48.18956 9.33669 15698 ft 340 kts 13°
2026-05-05 13:12 48.21258 9.34523 15295 ft 340 kts 13°
2026-05-05 13:13 48.23554 9.35380 14893 ft 340 kts 13°
2026-05-05 13:13 48.25861 9.36243 14486 ft 340 kts 13°
2026-05-05 13:13 48.28134 9.37089 14082 ft 341 kts 14°
2026-05-05 13:13 48.30443 9.37947 13669 ft 343 kts 14°
2026-05-05 13:14 48.32759 9.38808 13214 ft 342 kts 13°
2026-05-05 13:14 48.35073 9.39669 12791 ft 341 kts 14°
2026-05-05 13:14 48.37376 9.40530 12393 ft 339 kts 14°
2026-05-05 13:14 48.39646 9.41381 12090 ft 334 kts 14°
2026-05-05 13:15 48.41900 9.42228 11681 ft 333 kts 14°
2026-05-05 13:15 48.44119 9.43063 11260 ft 333 kts 15°
2026-05-05 13:15 48.46290 9.44240 10839 ft 332 kts 22°
2026-05-05 13:15 48.48437 9.45533 10406 ft 332 kts 22°
2026-05-05 13:16 48.50581 9.46825 10084 ft 328 kts 22°
2026-05-05 13:16 48.52665 9.48085 9958 ft 317 kts 22°
2026-05-05 13:16 48.54699 9.49318 9593 ft 316 kts 22°
2026-05-05 13:16 48.56745 9.50555 9267 ft 314 kts 22°
2026-05-05 13:17 48.58738 9.51755 8974 ft 311 kts 22°
2026-05-05 13:17 48.60735 9.52960 8651 ft 308 kts 22°
2026-05-05 13:17 48.62718 9.54156 8286 ft 305 kts 22°
2026-05-05 13:17 48.64676 9.55337 7715 ft 300 kts 22°
2026-05-05 13:18 48.66593 9.56536 7148 ft 294 kts 28°
2026-05-05 13:18 48.68133 9.58468 6792 ft 286 kts 56°
2026-05-05 13:18 48.68980 9.61077 6600 ft 274 kts 72°
2026-05-05 13:18 48.69818 9.63593 6475 ft 264 kts 51°
2026-05-05 13:19 48.71260 9.65195 6344 ft 254 kts 20°
2026-05-05 13:19 48.72964 9.65494 6221 ft 243 kts 349°
2026-05-05 13:19 48.74505 9.64558 6217 ft 240 kts 320°
2026-05-05 13:19 48.75589 9.62692 6129 ft 235 kts 294°
2026-05-05 13:20 48.75991 9.60340 5942 ft 230 kts 266°
2026-05-05 13:20 48.75710 9.58027 5675 ft 226 kts 251°
2026-05-05 13:20 48.75279 9.55739 5385 ft 225 kts 252°
2026-05-05 13:20 48.74851 9.53454 5083 ft 225 kts 252°
2026-05-05 13:21 48.74427 9.51177 4797 ft 223 kts 251°
2026-05-05 13:21 48.74012 9.48947 4492 ft 217 kts 252°
2026-05-05 13:21 48.73608 9.46783 4205 ft 211 kts 252°
2026-05-05 13:21 48.73216 9.44684 3932 ft 203 kts 253°
2026-05-05 13:22 48.72836 9.42651 3651 ft 195 kts 253°
2026-05-05 13:22 48.72496 9.40836 3441 ft 176 kts 253°
2026-05-05 13:22 48.72166 9.39076 3213 ft 163 kts 255°
2026-05-05 13:22 48.71876 9.37531 2993 ft 148 kts 254°
2026-05-05 13:23 48.71601 9.36066 2815 ft 141 kts 254°
2026-05-05 13:23 48.71336 9.34652 2616 ft 137 kts 254°
2026-05-05 13:23 48.71075 9.33267 2452 ft 137 kts 255°
2026-05-05 13:23 48.70815 9.31886 2271 ft 136 kts 255°
2026-05-05 13:24 48.70556 9.30509 2064 ft 138 kts 255°
2026-05-05 13:24 48.70291 9.29103 1836 ft 138 kts 252°
2026-05-05 13:24 48.70030 9.27706 1701 ft 139 kts 255°
2026-05-05 13:24 48.69780 9.26310 1522 ft 136 kts 254°
2026-05-05 13:25 48.69491 9.24947 1309 ft 135 kts 253°
2026-05-05 13:25 48.69258 9.23601 1208 ft 122 kts 250°
2026-05-05 13:25 48.69063 9.22591 1225 ft 79 kts 255°
2026-05-05 13:25 48.68933 9.21908 1246 ft 57 kts 254°
2026-05-05 13:26 48.68838 9.21413 1259 ft 42 kts 255°
2026-05-05 13:26 48.68826 9.21021 1263 ft 34 kts 281°
2026-05-05 13:26 48.68879 9.20708 1275 ft 23 kts 272°
2026-05-05 13:26 48.68840 9.20492 1280 ft 21 kts 254°
2026-05-05 13:27 48.68804 9.20302 1284 ft 16 kts 254°
2026-05-05 13:27 48.68778 9.20169 1287 ft 12 kts 253°
2026-05-05 13:27 48.68756 9.20040 1290 ft 11 kts 266°
2026-05-05 13:27 48.68789 9.19958 1294 ft 7 kts 313°
2026-05-05 13:28 48.68825 9.19906 1298 ft 10 kts 323°
2026-05-05 13:28 48.68887 9.19856 1303 ft 8 kts 304°
2026-05-05 13:28 48.68881 9.19774 1306 ft 9 kts 254°
2026-05-05 13:28 48.68861 9.19676 1308 ft 10 kts 254°
2026-05-05 13:29 48.68865 9.19607 1310 ft 4 kts 326°
2026-05-05 13:29 48.68878 9.19601 1311 ft 2 kts 342°
2026-05-05 13:29 48.68892 9.19595 1312 ft 0 kts 343°
2026-05-05 13:29 48.68906 9.19589 1313 ft 1 kts 344°
2026-05-05 13:30 48.68920 9.19583 1314 ft 1 kts 343°
2026-05-05 13:30 48.68924 9.19581 1314 ft 0 kts 343°